Location: Newark
(36.0797°N, 3.9744°E)
Time: 21:56:05
(UTC+00:00)

LightSail 2 - Visible Passes

Search period start: 11 November 2019 00:00
Search period end: 21 November 2019 00:00
Orbit: 702 x 726 km, 24.0° (Epoch: 10 November)

Date Brightness Start Highest point End Pass type
(mag) Time Alt. Az. Time Alt. Az. Time Alt. Az.
11 Nov 7.6 03:32:35 14° SSE 03:32:35 14° SSE 03:34:25 10° SE visible
11 Nov 7.1 05:12:45 10° SW 05:16:36 21° S 05:20:27 10° SE visible
12 Nov 7.0 04:17:28 18° SSW 04:18:55 20° S 04:22:37 10° SE visible
13 Nov 7.6 03:23:17 14° SE 03:23:17 14° SE 03:24:40 10° SE visible
13 Nov 7.0 05:02:17 10° SW 05:06:07 21° S 05:10:00 10° SE visible
14 Nov 6.9 04:08:04 21° S 04:08:25 21° S 04:12:17 10° SE visible
14 Nov 7.3 05:49:54 10° SW 05:53:18 18° S 05:56:42 10° SSE visible
15 Nov 7.9 03:13:50 12° SE 03:13:50 12° SE 03:14:28 10° SE visible
15 Nov 7.1 04:52:49 13° SW 04:55:36 19° S 04:59:15 10° SE visible
16 Nov 7.0 03:58:33 20° S 03:58:33 20° S 04:01:41 10° SE visible
16 Nov 7.4 05:40:10 10° SW 05:42:43 14° SSW 05:45:16 10° SSE visible
17 Nov 7.1 04:43:16 14° SW 04:45:01 16° SSW 04:48:09 10° SSE visible
18 Nov 7.4 03:48:59 16° SSE 03:48:59 16° SSE 03:50:46 10° SSE visible
19 Nov 7.4 04:33:41 12° SSW 04:34:21 12° SSW 04:36:18 10° S visible
